www.pogodaiklimat.ru

Погода и климат >> Архив погоды >> Алжир >> Ин-Салах


АРХИВ ПОГОДЫ в Ин-Салах

Время (UTC), дата Ветер
(напр.,м/с)
 
Видим.   Явления Облачность Т
(С)
Тd
(С)
f
(%)
Тe
(С)
Тes
(С)
Комфортность P
(гПа)
Po
(гПа)
Тmin
(С)
Tmax
(С)
R
(мм)
R24
(мм)
S
(см)
12 14.03 СВ 9 10 км ясно +28.8 +24 +25 комфорт 1018.4 987.9
15 14.03 СВ 8 10 км ясно +29.8 +25 +26 комфорт 1016.7 986.3
18 14.03 СВ 8 10 км ясно +27.6 -7.7 9 +24 +24 комфорт 1017.3 986.7 +30.4
21 14.03 СВ 8 10 км ясно +23.5 -5.1 14 +22 +22 комфорт 1019.5 988.4
00 15.03 СВ 10 9000 м пыльный позёмок ясно +21.7 -2.5 20 +21 +21 комфорт 1019.6 988.3
03 15.03 СВ 9 9000 м пыльный позёмок ясно +18.6 +0.2 29 +18 +18 1019.2 987.6
06 15.03 СВ 6 10 км ясно +16.0 +2.5 40 +15 +15 1020.4 988.5 +15.7
09 15.03 СВ 11 7000 м пыльный позёмок ясно +21.0 +3.2 31 +21 +21 комфорт 1021.3 989.9
12 15.03 СВ 9 9000 м пыльный позёмок ясно +26.2 -2.8 15 +24 +26 комфорт 1019.5 988.7
15 15.03 СВ 7 10 км ясно +28.3 +1.3 17 +26 +28 жарко 1016.9 986.4
18 15.03 В 6 10 км ясно +25.5 +0.1 19 +24 +24 комфорт 1017.6 986.8 +29.1
21 15.03 В 3 10 км ясно +19.6 -1.2 25 +20 +20 1019.7 988.2
00 16.03 СВ 6 10 км ясно +19.9 +1.2 29 +20 +20 1019.7 988.2
03 16.03 СВ 6 10 км ясно +16.8 +0.5 33 +16 +16 1018.9 987.1
06 16.03 СВ 8 10 км ясно +16.4 +0.9 35 +15 +15 1019.2 987.3 +16.1
09 16.03 СВ 11 9000 м пыльный позёмок ясно +21.0 +1.9 28 +21 +21 комфорт 1020.3 988.9
12 16.03 В 8 9000 м 3/0
[Ci sp]
+28.2 -2.0 14 +25 +28 комфорт 1017.7 987.1
15 16.03 СВ 3 10 км 3/0
[Ci sp]
+30.5 -4.4 10 +27 +34 жарко 1015.5 985.2
18 16.03 штиль 0 10 км 3/0
[Ci sp]
+27.9 -6.0 10 +25 +25 комфорт 1015.4 984.9 +31.5
21 16.03 штиль 0 10 км 3/0
[Ci sp]
+21.4 -9.6 12 +20 +20 1016.9 985.7
00 17.03 СВ 7 10 км 3/0
[Ci sp]
+18.8 -8.0 15 +18 +18 1016.5 985.0
03 17.03 СВ 8 10 км 3/0
[Ci sp]
+18.8 -5.5 19 +18 +18 1014.4 983.0
06 17.03 СВ 7 10 км 3/0
[Ci sp]
+16.4 -3.7 25 +15 +15 1015.6 983.9 +15.1
09 17.03 В 9 8000 м пыльный позёмок 3/0
[Ci sp]
+23.0 -0.8 21 +22 +23 комфорт 1017.2 986.1
12 17.03 В 4 8000 м 3/0
[Ci sp]
+30.3 -1.4 13 +27 +38 жарко 1015.4 985.1
15 17.03 ЮЗ 2 8000 м 3/0
[Ci sp]
+32.0 -4.3 9 +28 +36 жарко 1012.3 982.3
18 17.03 СЗ 2 8000 м 3/0
[Ci sp]
+28.9 -5.4 10 +25 +25 комфорт 1012.0 981.7 +32.7
21 17.03 штиль 0 8000 м 3/0
[Ci sp]
+19.7 -8.0 15 +19 +19 1012.5 981.2
00 18.03 СВ 8 8000 м 3/0
[Ci sp]
+19.4 -5.5 18 +19 +19 1012.8 981.5
03 18.03 штиль 0 8000 м 3/0
[Ci sp]
+18.8 -5.0 19 +19 +19 1010.4 979.1
06 18.03 СВ 9 8000 м 5/0
[Ac trans Ci sp]
+21.4 -0.1 24 +21 +21 комфорт 1010.1 979.1 +18.7
09 18.03 СВ 11 6000 м пыльный позёмок 6/3 1500 м
[Cu med, cong Ac trans Ci sp]
+24.6 -0.3 19 +23 +23 комфорт 1011.0 980.3
12 18.03 СВ 10 7000 м пыльный позёмок 4/0
[Ac trans Ci sp]
+31.3 -2.3 11 +28 +28 жарко 1009.7 979.7
15 18.03 СВ 9 9000 м пыльный позёмок 3/0
[Ci sp]
+31.6 -1.7 12 +28 +29 жарко 1007.8 977.9
18 18.03 СВ 8 9000 м 3/0
[Ci sp]
+29.1 -4.7 11 +26 +26 жарко 1008.8 978.6 +32.2
21 18.03 С 8 9000 м 4/0
[Ci sp]
+26.2 -1.6 16 +24 +24 комфорт 1011.3 980.7
00 19.03 СВ 6 9000 м 4/0
[Ci sp]
+23.4 -0.5 20 +22 +22 комфорт 1011.7 980.8
03 19.03 штиль 0 10 км 3/0
[Ci sp]
+19.6 -1.0 25 +19 +19 1011.0 979.7
06 19.03 штиль 0 10 км 3/0
[Ci sp]
+14.1 -3.3 30 +14 +14 1012.1 980.2 +13.4
09 19.03 штиль 0 10 км 3/0
[Ci sp]
+22.6 +0.5 23 +22 +34 комфорт 1013.6 982.6
12 19.03 СВ 3 15 км 3/0
[Ci sp]
+28.3 +0.9 17 +26 +40 жарко 1012.3 981.9
15 19.03 СВ 4 15 км ясно +30.9 +0.8 14 +28 +33 жарко 1009.7 979.6
18 19.03 С 3 10 км ясно +29.1 -1.2 14 +26 +26 жарко 1010.1 979.8 +31.1
21 19.03 С 5 10 км ясно +24.8 -2.9 16 +23 +23 комфорт 1012.0 981.3
00 20.03 СВ 4 10 км ясно +21.2 -2.6 20 +20 +20 1012.4 981.3
03 20.03 штиль 0 10 км ясно +17.1 +0.7 33 +17 +17 1011.6 980.1
06 20.03 штиль 0 10 км ясно +14.8 +0.9 39 +15 +15 1011.9 980.1 +13.9
09 20.03 В 8 10 км ясно +21.0 +2.5 29 +21 +23 комфорт 1013.9 982.7
12 20.03 СВ 7 10 км ясно +25.7 +0.5 19 +24 +29 комфорт 1013.1 982.4
15 20.03 СВ 3 10 км ясно +28.8 -1.1 14 +26 +33 жарко 1010.2 979.9
18 20.03 СЗ 3 10 км ясно +26.4 -2.8 14 +24 +24 комфорт 1010.5 980.0 +28.9
21 20.03 СВ 10 8000 м пыльный позёмок ясно +21.1 -1.1 23 +21 +21 комфорт 1012.5 981.4
00 21.03 СВ 10 8000 м пыльный позёмок ясно +17.0 +1.5 35 +15 +15 1013.3 981.7
03 21.03 СВ 8 10 км ясно +15.5 -0.7 33 +14 +14 1013.3 981.5
06 21.03 СВ 6 10 км ясно +13.8 +0.9 41 +12 +12 1014.9 982.9 +13.8
09 21.03 В 10 7000 м пыльный позёмок ясно +17.5 +2.4 36 +16 +17 1016.4 984.8

 

Местоположение метеостанции Ин-Салах (Алжир): широта 27.23 долгота 2.50 высота над уровнем моря 269 м.

В архиве по умолчанию представлена погода в Ин-Салах за последнюю неделю. Архивные данные за месяц целиком и за предыдущие месяцы, начиная с января 2011 года, Вы можете получить, выбрав интересующий диапазон дат из раскрывающегося списка и нажав кнопку "Ввод!".


*Определитесь, кто Вы:
робот инопланетянин человек

Внимание! Время в таблицах - всемирное. Для получения местного времени необходимо прибавить поправку, которая равна 1 ч.

Смотрите также архив погоды в соседних городах и на ближайших метеорологических станциях:

Погода в Араке (Алжир) (254 км)
Погода в Адраре (Алжир) (274 км)
Погода в Тимимуне (Алжир) (313 км)
Погода в Abankor (Алжир) (326 км)
Погода в Moulay Lachen (Алжир) (350 км)
Погода в Эль-Голеа (Алжир) (373 км)
Погода в Ин-Зиза (Алжир) (418 км)
Погода в Mertouek (Алжир) (455 км)
Погода в Роуд-Ноусс (Алжир) (495 км)
Погода в Tin Fouye (Алжир) (514 км)

Пояснения к столбцам:

Ветер - указаны скорость ветра в м/с - средняя за 10 мин, порывы в срок и между сроками (в фигурных скобках) и направление, откуда дует ветер: С - северный, СВ - северо-восточный, В - восточный, ЮВ - юго-восточный, Ю - южный, ЮЗ - юго-западный, З - западный, СЗ - северо-западный.
Видимость - горизонтальная дальность видимости в метрах или километрах. При видимости от 1 до 10 км при отсутствии осадков обычно наблюдается дымка, при ухудшении видимости до 1 км и менее - туман. В сухую погоду видимость может ухудшаться дымом, пылью или мглою.
Явления - указаны атмосферные явления, наблюдавшиеся в срок или в последний час перед сроком; фигурными скобками обозначены явления, наблюдавшиеся между сроками (за 1-3 часа до срока); квадратными скобками обозначены град или гололедные отложения с указанием их диаметра в мм.
Облачность - указаны через наклонную черту общая и нижняя облачность в баллах и высота нижней границы облаков в метрах; квадратными скобками обозначены формы облаков: Ci - перистые, Cs - перисто-слоистые, Cc - перисто-кучевые, Ac - высококучевые, As - высокослоистые, Sc - слоисто-кучевые, Ns - слоисто-дождевые, Cu - кучевые, Cb - кучево-дождевые. Подробнее классификацию облаков см. в Атласе облаков (PDF).
T - Температура воздуха - температура, измеренная на высоте 2 м над землей.
Td - Температура точки росы - температура, при понижении до которой содержащийся в воздухе водяной пар достигнет насыщения.
f - Относительная влажность воздуха - влажноcть воздуха, измеренная на высоте 2 м над землей.
Te - Эффективная температура - температура, которую ощущает одетый по сезону человек в тени. Характеристика душности погоды. При расчете учитывается влияние влажности воздуха и скорости ветра на теплоощущения человека.
Tes - Эффективная температура на солнце - температура, которую ощущает человек, с поправкой на солнечный нагрев. Характеристика знойности погоды. Зависит от высоты солнца над горизонтом, облачности и скорости ветра. Ночью, в пасмурную погоду, а также при ветре 12 м/с и более поправка равна нулю.
P - Атмосферное давление - приведенное к уровню моря атмосферное давление.
Po - Атмосферное давление - измеренное на уровне метеостанции атмосферное давление.
Tmin - Минимальная температура - минимум температуры воздуха на высоте 2 м над землей.
Tmax - Максимальная температура - максимум температуры воздуха на высоте 2 м над землей.
R - Количество осадков - Количество выпавших осадков за период времени, мм. При наведении курсора мыши на число - период времени, за который выпало указанное количество осадков.
R24 - Количество осадков - Количество выпавших осадков за 24 часа, мм.
S - Снежный покров - Высота снежного покрова, см. При наведении курсора мыши на число - состояние снежного покрова и степень покрытия местности в баллах.